Regional Weather Roundup
Issued by NWS Sterling, VA

Home | Current Version | Previous Version | Text Only | Print | Product List | Glossary Off
Versions: 1 2 3 4 5 6 7 8 9 10 11 12 13 14 15 16 17 18 19 20 21 22 23 24 25 26 27 28 29 30 31 32 33 34 35 36 37 38 39 40 41 42 43 44 45 46 47 48 49 50

000
ASUS41 KLWX 291510
RWRLWX

REGIONAL WEATHER ROUNDUP
NATIONAL WEATHER SERVICE BALTIMORE MD/WASHINGTON DC
1100 AM EDT SUN MAR 29 2015

Note: "FAIR" indicates few or no clouds below 12,000 feet
with no significant weather and/or obstructions to visibility.
 TC=TEMPERATURE CELSIUS

 * =Non NWS site. Station does not report precipitation (e.g. rain,
    snow, etc.), thunder, or fog.

DCZ001-MDZ009-015-VAZ040>042-051-053>054-291600-
WASHINGTON METRO

CITY           SKY/WX    TMP DP  RH WIND       PRES   REMARKS
WASHINGTON NAT SUNNY     37   9  31 NW10G16   30.43R
DULLES         SUNNY     32   7  35 N10       30.41R WCI  24
ANDREWS AFB    SUNNY     34   8  34 N9        30.39R WCI  27
FT BELVOIR     SUNNY     34   7  31 NW10G23   30.42R WCI  26
QUANTICO       SUNNY     36   6  28 N9G22     30.44R WCI  29
COLLEGE PARK*  SUNNY     34   9  35 W9        30.40R WCI  26
LEESBURG*      SUNNY     34  12  40 N13       30.42R WCI  25
MANASSAS*      SUNNY     34   9  35 N9G16     30.43R WCI  26
GAITHERSBURG*  SUNNY     32   9  37 N5        30.42R

$$

MDZ006>007-011-014-291600-
BALTIMORE METRO

CITY           SKY/WX    TMP DP  RH WIND       PRES   REMARKS
BWI AIRPORT    SUNNY     35   7  31 NW7       30.38R
MARTIN STATE   SUNNY     36  10  35 N7        30.40R
ANNAPOLIS      SUNNY     33  10  38 NW10      30.39R WCI  25

$$

MDZ012-015-019>023-291600-
MARYLAND EASTERN SHORE

CITY           SKY/WX    TMP DP  RH WIND       PRES   REMARKS
OCEAN CITY     SUNNY     34  10  37 N15G24    30.34F WCI  24
SALISBURY      SUNNY     34  13  41 NW9G23    30.35S WCI  27
BAY BRIDGE AP*   N/A     32  10  40 NW12      30.40R WCI  23
CAMBRIDGE*     SUNNY     36  18  48 NW12      30.37S WCI  27
EASTON*        SUNNY     36  14  41 N13G25    30.41R WCI  27

$$

MDZ017>025-291600-
SOUTHERN MARYLAND

CITY           SKY/WX    TMP DP  RH WIND       PRES   REMARKS
PATUXENT RIVER SUNNY     34   7  32 NW15      30.39R WCI  24
ST INIGOES     SUNNY     36   8  31 VRB7      30.39R
LEONARDTOWN*   SUNNY     34   5  29 N5        30.41R

$$

MDZ003>005-291600-
NORTH CENTRAL MARYLAND

CITY           SKY/WX    TMP DP  RH WIND       PRES   REMARKS
FREDERICK*     SUNNY     36   0  21 NW8       30.43R
HAGERSTOWN APT SUNNY     32   6  33 NW10      30.37F WCI  24
WESTMINSTER*   SUNNY     30   3  31 N5        30.35S

$$

MDZ501>502-291600-
WESTERN MARYLAND

CITY           SKY/WX    TMP DP  RH WIND       PRES   REMARKS
OAKLAND*       SUNNY     23  10  58 W6        30.25S
CUMBERLAND*    SUNNY     32   9  37 CALM      30.42F

$$

VAZ025>031-291600-
SHENANDOAH VALLEY

CITY           SKY/WX    TMP DP  RH WIND       PRES   REMARKS
WINCHESTER*    SUNNY     34  -2  21 W6        30.38F
FRONT ROYAL*   FAIR      34   3  27 NW3       30.38S
LURAY*         FAIR      36   5  27 CALM      30.37F
NEW MARKET*    FAIR      33   6  32 SE6       30.37F
STAUNTON*      SUNNY     32   2  27 CALM      30.39S
WAYNESBORO*    FAIR      31  -1  24 N5        30.35F

$$

WVZ021-048>050-054>055-291600-
EASTERN WEST VIRGINIA PANHANDLE

CITY           SKY/WX    TMP DP  RH WIND       PRES   REMARKS
MARTINSBURG    SUNNY     34   6  31 VRB6      30.39F
PETERSBURG*    SUNNY     32   0  25 CALM      30.38F

$$

VAZ036>039-050-291600-
CENTRAL FOOTHILLS

CITY           SKY/WX    TMP DP  RH WIND       PRES   REMARKS
CHARLOTTESVILL SUNNY     36  -1  21 VRB7      30.39R
CULPEPER*      SUNNY     36   3  25 N9        30.42S WCI  29
ORANGE*        SUNNY     36   3  25 NW5       30.42S
GORDONSVILLE*  FAIR      34   1  24 N6        30.41R
WARRENTON*     FAIR      36  14  40 N10       30.41S WCI  28

$$

VAZ055>057-291600-
NORTH AND CENTRAL PIEDMONT

CITY           SKY/WX    TMP DP  RH WIND       PRES   REMARKS
FREDERICKSBRG* SUNNY     36   9  32 NW10      30.43R WCI  28
STAFFORD*      SUNNY     33   4  28 W8        30.47R WCI  27

$$

NCZ024-NYZ072-PAZ021-071-VAZ022-071-291600-
OTHER REGIONAL OBSERVATIONS

CITY           SKY/WX    TMP DP  RH WIND       PRES   REMARKS
NEW YORK CITY  SUNNY     33   1  25 VRB6      30.30S
PHILADELPHIA   SUNNY     35   6  29 N9G18     30.35R WCI  28
PITTSBURGH     MOSUNNY   30  11  45 SW8       30.34F WCI  22
ROANOKE        SUNNY     35   3  26 VRB3      30.41S
RICHMOND       SUNNY     37   5  26 NW14G21   30.42S WCI  28
RALEIGH        SUNNY     38   9  30 VRB5      30.45R

$$

ANZ530>537-291600-
MARINE OBSERVATIONS

STATION/POSITION TIME  TEMP    WIND        PRES
                       AIR SEA DIR/SP/G
                 (UTC) (F)     (DEG/KT/KT) (MB)
THOMAS PT LIGHT  1500                        N/A
BALT KEY BRIDGE  1400   30     300/ 11/ 13 1028.7R
COVE POINT       1400   29     350/ 14/ 17 1028.6R
LEWISETTA        1400   31 42              1029.2R
SOLOMONS ISLAND  1412      42                N/A
PINEY POINT      1400          330/ 13/ 16   N/A

$$




USA.gov is the U.S. government's official web portal to all federal, state and local government web resources and services.